Location: Vinland
(47.7731°N, 122.6974°W)
Time: 02:57:25
(UTC+00:00)

S-56A Canister/Altair - Pass Details

Date: 02 April 2023
Orbit: 639 x 2492 km, 38.9° (Epoch: 31 May)

Event Time Altitude Azimuth Distance (km) Brightness Sun altitude
Rises 06:08:45 0° 277° (W) 5,377 12.4 -30.6°
Reaches altitude 10° 06:12:17 10° 270° (W) 4,592 11.9 -30.9°
Maximum altitude 06:24:03 39° 209° (SSW) 3,271 10.4 -32.1°
Enters shadow 06:26:15 37° 193° (SSW) 3,373 10.3 -32.3°
